QPF
0.00 0.00 0.00 0.00 0.00 0.00 0.00 0.00 0.00 0.00 0.00 0.00 0.01 0.01 0.02 0.02 0.02 0.01 0.01 0.01 0.01 0.01 0.01 0.01 0.02 0.02 0.02 0.01 0.01 0.01 0.01 0.01 0.01 0.02 0.02 0.02 0.02 0.02 0.03 0.03 0.03 0.04 0.04 0.04
0.00 0.00 0.00 0.00 0.00 0.00 0.00 0.00 0.00 0.00 0.00 0.00 0.01 0.01 0.01 0.01 0.01 0.01 0.01 0.01 0.01 0.01 0.01 0.01 0.01 0.01 0.01 0.01 0.01 0.01 0.00 0.00 0.01 0.01 0.01 0.01 0.02 0.01 0.01 0.02 0.02 0.03 0.04 0.05
0.00 0.00 0.00 0.00 0.00 0.00 0.00 0.00 0.00 0.00 0.00 0.01 0.01 0.02 0.02 0.01 0.01 0.01 0.01 0.01 0.00 0.00 0.01 0.01 0.00 0.01 0.01 0.01 0.01 0.00 0.00 0.00 0.00 0.01 0.01 0.01 0.02 0.02 0.02 0.03 0.04 0.06 0.09 0.10
0.00 0.00 0.00 0.00 0.00 0.00 0.00 0.00 0.00 0.00 0.00 0.01 0.01 0.02 0.02 0.02 0.01 0.01 0.01 0.01 0.01 0.01 0.00 0.00 0.00 0.00 0.01 0.01 0.01 0.00 0.00 0.01 0.01 0.01 0.01 0.01 0.02 0.02 0.04 0.05 0.07 0.09 0.10 0.06
0.00 0.00 0.00 0.00 0.00 0.00 0.00 0.00 0.00 0.00 0.00 0.01 0.02 0.02 0.02 0.01 0.01 0.01 0.02 0.02 0.01 0.01 0.01 0.02 0.02 0.02 0.03 0.04 0.02 0.01 0.01 0.01 0.01 0.01 0.01 0.01 0.02 0.04 0.04 0.04 0.04 0.03 0.03 0.03
0.00 0.00 0.00 0.00 0.00 0.00 0.00 0.01 0.00 0.01 0.01 0.01 0.01 0.01 0.01 0.01 0.01 0.02 0.02 0.03 0.04 0.04 0.04 0.06 0.06 0.05 0.06 0.08 0.07 0.04 0.03 0.02 0.02 0.02 0.03 0.03 0.03 0.03 0.03 0.02 0.02 0.01 0.01 0.01
0.00 0.00 0.00 0.00 0.00 0.00 0.01 0.01 0.00 0.01 0.03 0.04 0.03 0.03 0.03 0.03 0.02 0.02 0.03 0.04 0.05 0.05 0.06 0.09 0.14 0.13 0.08 0.07 0.09 0.07 0.05 0.04 0.03 0.03 0.04 0.04 0.04 0.04 0.03 0.02 0.01 0.01 0.00 0.01
0.00 0.00 0.00 0.00 0.00 0.00 0.00 0.00 0.00 0.01 0.02 0.04 0.06 0.06 0.05 0.04 0.04 0.04 0.04 0.04 0.04 0.04 0.04 0.06 0.10 0.16 0.16 0.10 0.07 0.06 0.06 0.05 0.04 0.04 0.04 0.04 0.04 0.04 0.03 0.03 0.02 0.01 0.01 0.01
0.00 0.00 0.00 0.00 0.00 0.00 0.00 0.00 0.00 0.00 0.01 0.02 0.03 0.04 0.04 0.04 0.04 0.04 0.04 0.04 0.04 0.03 0.04 0.05 0.05 0.06 0.10 0.11 0.09 0.07 0.05 0.05 0.05 0.05 0.05 0.05 0.04 0.04 0.04 0.03 0.02 0.02 0.02 0.01
0.00 0.00 0.00 0.00 0.00 0.00 0.01 0.01 0.01 0.01 0.01 0.01 0.01 0.01 0.01 0.01 0.01 0.02 0.02 0.02 0.02 0.02 0.02 0.03 0.03 0.03 0.03 0.04 0.05 0.07 0.07 0.06 0.05 0.05 0.05 0.05 0.05 0.05 0.04 0.03 0.02 0.02 0.02 0.01
0.00 0.00 0.00 0.00 0.01 0.01 0.02 0.01 0.01 0.01 0.01 0.01 0.01 0.00 0.00 0.01 0.01 0.00 0.01 0.01 0.01 0.01 0.02 0.06 0.04 0.04 0.02 0.02 0.02 0.03 0.04 0.05 0.05 0.05 0.05 0.06 0.05 0.03 0.02 0.02 0.01 0.01 0.01 0.01
0.01 0.01 0.00 0.00 0.00 0.01 0.01 0.01 0.01 0.00 0.00 0.00 0.00 0.00 0.00 0.00 0.00 0.00 0.01 0.01 0.01 0.02 0.02 0.03 0.02 0.03 0.02 0.02 0.02 0.02 0.03 0.04 0.04 0.05 0.05 0.04 0.03 0.02 0.01 0.01 0.02 0.02 0.02 0.02
0.01 0.02 0.03 0.03 0.01 0.00 0.00 0.00 0.00 0.00 0.00 0.00 0.00 0.00 0.00 0.00 0.01 0.01 0.01 0.01 0.01 0.01 0.01 0.02 0.01 0.01 0.02 0.03 0.02 0.01 0.01 0.02 0.03 0.03 0.03 0.02 0.02 0.01 0.01 0.02 0.02 0.01 0.02 0.02
0.00 0.01 0.01 0.01 0.01 0.01 0.01 0.01 0.01 0.00 0.00 0.01 0.01 0.01 0.00 0.00 0.01 0.01 0.00 0.01 0.01 0.01 0.01 0.01 0.01 0.01 0.01 0.02 0.02 0.01 0.01 0.01 0.01 0.02 0.02 0.01 0.01 0.01 0.01 0.01 0.01 0.01 0.01 0.02
0.00 0.01 0.02 0.01 0.01 0.01 0.01 0.01 0.01 0.01 0.01 0.01 0.00 0.00 0.00 0.00 0.00 0.00 0.00 0.00 0.01 0.01 0.01 0.01 0.02 0.02 0.02 0.02 0.01 0.01 0.01 0.01 0.01 0.01 0.01 0.01 0.01 0.01 0.01 0.01 0.01 0.01 0.01 0.01
0.01 0.01 0.02 0.02 0.01 0.01 0.01 0.02 0.02 0.01 0.00 0.00 0.00 0.00 0.00 0.00 0.00 0.00 0.00 0.01 0.01 0.01 0.01 0.01 0.02 0.02 0.04 0.04 0.02 0.01 0.01 0.01 0.01 0.01 0.01 0.01 0.01 0.01 0.01 0.01 0.01 0.01 0.01 0.02
0.01 0.01 0.01 0.01 0.02 0.02 0.02 0.01 0.01 0.00 0.00 0.00 0.00 0.01 0.00 0.00 0.00 0.01 0.01 0.02 0.02 0.01 0.01 0.01 0.01 0.02 0.03 0.03 0.02 0.02 0.02 0.01 0.01 0.01 0.01 0.01 0.00 0.00 0.00 0.01 0.01 0.01 0.01 0.02
0.01 0.01 0.01 0.01 0.02 0.02 0.01 0.00 0.01 0.01 0.00 0.00 0.00 0.01 0.01 0.01 0.01 0.01 0.01 0.02 0.02 0.02 0.02 0.02 0.02 0.02 0.04 0.04 0.02 0.01 0.01 0.01 0.01 0.01 0.01 0.01 0.01 0.00 0.00 0.00 0.00 0.00 0.01 0.01
0.02 0.01 0.01 0.01 0.01 0.01 0.01 0.01 0.01 0.01 0.01 0.01 0.01 0.01 0.01 0.01 0.01 0.01 0.02 0.02 0.03 0.03 0.03 0.03 0.03 0.02 0.03 0.05 0.03 0.01 0.01 0.01 0.01 0.01 0.01 0.01 0.01 0.00 0.00 0.00 0.00 0.01 0.01 0.01
0.04 0.03 0.02 0.02 0.01 0.01 0.01 0.02 0.01 0.01 0.01 0.01 0.01 0.01 0.01 0.01 0.01 0.01 0.02 0.02 0.04 0.05 0.04 0.03 0.01 0.01 0.02 0.04 0.06 0.02 0.01 0.01 0.01 0.01 0.01 0.01 0.00 0.00 0.00 0.00 0.00 0.00 0.01 0.01
0.02 0.03 0.01 0.01 0.01 0.01 0.01 0.02 0.01 0.01 0.01 0.01 0.01 0.01 0.02 0.02 0.02 0.02 0.03 0.02 0.03 0.04 0.03 0.01 0.01 0.01 0.01 0.04 0.06 0.03 0.02 0.01 0.01 0.01 0.01 0.01 0.01 0.01 0.01 0.00 0.00 0.00 0.01 0.01
0.02 0.01 0.01 0.01 0.01 0.01 0.02 0.02 0.02 0.01 0.02 0.02 0.01 0.02 0.02 0.03 0.03 0.03 0.02 0.01 0.02 0.02 0.02 0.01 0.01 0.02 0.02 0.03 0.03 0.03 0.02 0.02 0.02 0.02 0.02 0.01 0.01 0.00 0.01 0.01 0.01 0.02 0.02 0.03
0.04 0.02 0.01 0.01 0.02 0.02 0.03 0.02 0.02 0.02 0.02 0.02 0.02 0.03 0.03 0.03 0.04 0.03 0.02 0.01 0.02 0.02 0.02 0.02 0.02 0.03 0.03 0.03 0.03 0.03 0.03 0.03 0.03 0.03 0.03 0.03 0.01 0.01 0.01 0.02 0.03 0.03 0.03 0.03
0.05 0.03 0.02 0.02 0.02 0.03 0.03 0.03 0.02 0.02 0.02 0.02 0.02 0.03 0.03 0.04 0.03 0.02 0.02 0.02 0.01 0.01 0.01 0.02 0.03 0.03 0.02 0.02 0.02 0.02 0.03 0.03 0.04 0.03 0.03 0.03 0.03 0.03 0.03 0.03 0.03 0.03 0.03 0.03
0.03 0.03 0.03 0.03 0.04 0.04 0.04 0.03 0.02 0.02 0.02 0.02 0.02 0.02 0.02 0.02 0.02 0.01 0.01 0.01 0.01 0.01 0.02 0.02 0.03 0.03 0.03 0.02 0.02 0.02 0.02 0.03 0.03 0.03 0.03 0.04 0.04 0.04 0.03 0.03 0.03 0.03 0.03 0.02
0.01 0.01 0.01 0.02 0.03 0.04 0.04 0.03 0.03 0.02 0.02 0.02 0.02 0.02 0.02 0.02 0.02 0.02 0.02 0.02 0.02 0.02 0.02 0.02 0.03 0.03 0.03 0.02 0.02 0.02 0.02 0.02 0.03 0.03 0.03 0.04 0.04 0.03 0.03 0.02 0.02 0.02 0.02 0.02
0.02 0.02 0.02 0.03 0.04 0.05 0.05 0.04 0.04 0.03 0.03 0.03 0.03 0.03 0.03 0.03 0.03 0.03 0.03 0.03 0.02 0.01 0.01 0.02 0.02 0.03 0.03 0.02 0.02 0.02 0.02 0.02 0.02 0.02 0.02 0.02 0.02 0.01 0.01 0.01 0.01 0.02 0.02 0.03
MSLP
1004.99 1005.54 1006.11 1006.64 1007.07 1007.36 1007.48 1007.40 1007.16 1006.79 1006.35 1005.90 1005.52 1005.26 1005.16 1005.24 1005.47 1005.83 1006.27 1006.74 1007.20 1007.64 1008.03 1008.39 1008.75 1009.11 1009.52 1009.96 1010.45 1010.97 1011.50 1012.01 1012.49 1012.91 1013.28 1013.59 1013.87 1014.14 1014.39 1014.66 1014.93 1015.20 1015.45 1015.69
1005.15 1005.61 1006.00 1006.30 1006.46 1006.48 1006.35 1006.10 1005.77 1005.39 1005.03 1004.74 1004.55 1004.48 1004.56 1004.76 1005.05 1005.41 1005.80 1006.19 1006.56 1006.92 1007.27 1007.62 1008.00 1008.43 1008.92 1009.45 1010.02 1010.60 1011.17 1011.70 1012.18 1012.60 1012.96 1013.28 1013.57 1013.85 1014.13 1014.41 1014.70 1014.97 1015.23 1015.45
1005.45 1005.80 1006.03 1006.09 1005.98 1005.73 1005.37 1004.94 1004.49 1004.10 1003.78 1003.60 1003.55 1003.64 1003.84 1004.13 1004.48 1004.84 1005.19 1005.53 1005.84 1006.16 1006.48 1006.85 1007.28 1007.78 1008.34 1008.95 1009.58 1010.21 1010.81 1011.34 1011.81 1012.21 1012.56 1012.86 1013.15 1013.44 1013.73 1014.02 1014.32 1014.60 1014.84 1015.04
1005.82 1006.05 1006.09 1005.92 1005.57 1005.08 1004.49 1003.89 1003.34 1002.90 1002.61 1002.48 1002.53 1002.72 1003.02 1003.38 1003.76 1004.13 1004.47 1004.77 1005.07 1005.37 1005.71 1006.11 1006.59 1007.15 1007.78 1008.45 1009.13 1009.79 1010.38 1010.91 1011.35 1011.72 1012.04 1012.32 1012.60 1012.88 1013.17 1013.47 1013.77 1014.04 1014.28 1014.46
1006.14 1006.22 1006.07 1005.70 1005.13 1004.43 1003.67 1002.93 1002.28 1001.79 1001.50 1001.41 1001.52 1001.77 1002.13 1002.53 1002.94 1003.32 1003.66 1003.97 1004.27 1004.59 1004.96 1005.41 1005.94 1006.56 1007.24 1007.96 1008.66 1009.31 1009.89 1010.39 1010.79 1011.13 1011.41 1011.67 1011.93 1012.20 1012.50 1012.80 1013.09 1013.36 1013.57 1013.73
1006.28 1006.19 1005.87 1005.32 1004.59 1003.73 1002.84 1002.00 1001.29 1000.78 1000.48 1000.41 1000.55 1000.84 1001.23 1001.67 1002.10 1002.49 1002.85 1003.18 1003.50 1003.85 1004.27 1004.76 1005.35 1006.01 1006.72 1007.45 1008.15 1008.79 1009.34 1009.80 1010.16 1010.46 1010.72 1010.96 1011.21 1011.48 1011.77 1012.07 1012.36 1012.62 1012.82 1012.95
1006.14 1005.90 1005.43 1004.75 1003.90 1002.96 1002.00 1001.13 1000.40 999.89 999.60 999.55 999.71 1000.02 1000.43 1000.87 1001.31 1001.73 1002.10 1002.46 1002.81 1003.20 1003.66 1004.19 1004.81 1005.49 1006.21 1006.93 1007.61 1008.22 1008.74 1009.17 1009.50 1009.78 1010.02 1010.25 1010.51 1010.78 1011.08 1011.39 1011.68 1011.92 1012.11 1012.22
1005.73 1005.34 1004.76 1004.00 1003.11 1002.16 1001.21 1000.36 999.67 999.18 998.93 998.90 999.07 999.38 999.79 1000.24 1000.68 1001.11 1001.50 1001.88 1002.26 1002.68 1003.17 1003.72 1004.35 1005.03 1005.73 1006.43 1007.07 1007.65 1008.13 1008.53 1008.85 1009.12 1009.37 1009.62 1009.90 1010.20 1010.51 1010.83 1011.12 1011.37 1011.54 1011.63
1005.09 1004.60 1003.97 1003.20 1002.33 1001.43 1000.55 999.78 999.16 998.74 998.53 998.52 998.70 999.01 999.41 999.84 1000.28 1000.70 1001.10 1001.49 1001.90 1002.33 1002.82 1003.38 1003.99 1004.64 1005.31 1005.95 1006.56 1007.09 1007.55 1007.93 1008.25 1008.54 1008.82 1009.11 1009.42 1009.75 1010.10 1010.44 1010.74 1010.99 1011.16 1011.24
1004.35 1003.82 1003.18 1002.46 1001.68 1000.88 1000.13 999.48 998.96 998.62 998.46 998.48 998.66 998.96 999.33 999.74 1000.16 1000.57 1000.96 1001.35 1001.75 1002.19 1002.67 1003.19 1003.76 1004.36 1004.97 1005.55 1006.10 1006.59 1007.02 1007.40 1007.74 1008.06 1008.38 1008.72 1009.08 1009.47 1009.86 1010.22 1010.54 1010.80 1010.96 1011.04
1003.65 1003.12 1002.54 1001.92 1001.26 1000.61 1000.01 999.49 999.09 998.83 998.73 998.77 998.94 999.21 999.55 999.93 1000.32 1000.70 1001.08 1001.46 1001.85 1002.27 1002.71 1003.19 1003.69 1004.22 1004.75 1005.26 1005.74 1006.19 1006.59 1006.96 1007.32 1007.68 1008.06 1008.46 1008.88 1009.31 1009.74 1010.14 1010.48 1010.75 1010.93 1011.01
1003.10 1002.62 1002.14 1001.64 1001.13 1000.65 1000.20 999.81 999.52 999.34 999.27 999.32 999.48 999.72 1000.02 1000.36 1000.72 1001.08 1001.45 1001.81 1002.18 1002.56 1002.96 1003.37 1003.80 1004.24 1004.68 1005.10 1005.51 1005.90 1006.28 1006.65 1007.03 1007.42 1007.84 1008.30 1008.77 1009.25 1009.71 1010.14 1010.50 1010.79 1010.97 1011.07
1002.73 1002.34 1001.97 1001.61 1001.26 1000.92 1000.61 1000.34 1000.14 1000.01 999.97 1000.02 1000.16 1000.36 1000.63 1000.94 1001.28 1001.63 1001.98 1002.33 1002.68 1003.02 1003.37 1003.72 1004.07 1004.41 1004.76 1005.09 1005.43 1005.76 1006.10 1006.46 1006.85 1007.27 1007.72 1008.21 1008.72 1009.23 1009.72 1010.17 1010.55 1010.85 1011.05 1011.17
1002.51 1002.22 1001.96 1001.73 1001.52 1001.31 1001.11 1000.94 1000.80 1000.71 1000.68 1000.72 1000.84 1001.02 1001.27 1001.56 1001.89 1002.24 1002.59 1002.94 1003.28 1003.60 1003.90 1004.19 1004.46 1004.72 1004.97 1005.22 1005.48 1005.76 1006.06 1006.40 1006.79 1007.22 1007.70 1008.21 1008.73 1009.26 1009.76 1010.21 1010.60 1010.91 1011.13 1011.27
1002.35 1002.16 1002.01 1001.90 1001.79 1001.68 1001.57 1001.46 1001.36 1001.30 1001.27 1001.31 1001.41 1001.59 1001.83 1002.12 1002.46 1002.83 1003.20 1003.56 1003.90 1004.21 1004.48 1004.72 1004.93 1005.11 1005.29 1005.47 1005.66 1005.89 1006.16 1006.48 1006.86 1007.29 1007.77 1008.28 1008.81 1009.33 1009.83 1010.27 1010.66 1010.97 1011.21 1011.38
1002.15 1002.05 1002.00 1001.98 1001.96 1001.93 1001.88 1001.81 1001.74 1001.69 1001.67 1001.70 1001.81 1001.99 1002.25 1002.56 1002.93 1003.32 1003.73 1004.11 1004.47 1004.77 1005.03 1005.24 1005.40 1005.54 1005.66 1005.78 1005.94 1006.13 1006.38 1006.68 1007.06 1007.49 1007.96 1008.47 1008.99 1009.49 1009.96 1010.39 1010.76 1011.07 1011.32 1011.52
1001.85 1001.84 1001.87 1001.92 1001.96 1001.98 1001.97 1001.94 1001.89 1001.86 1001.85 1001.90 1002.02 1002.23 1002.51 1002.86 1003.27 1003.70 1004.14 1004.56 1004.93 1005.25 1005.50 1005.69 1005.84 1005.94 1006.04 1006.14 1006.27 1006.45 1006.70 1007.01 1007.38 1007.82 1008.29 1008.79 1009.28 1009.76 1010.21 1010.61 1010.96 1011.26 1011.51 1011.73
1001.45 1001.50 1001.60 1001.71 1001.81 1001.88 1001.90 1001.90 1001.88 1001.87 1001.88 1001.96 1002.10 1002.34 1002.65 1003.04 1003.48 1003.96 1004.43 1004.87 1005.27 1005.60 1005.85 1006.04 1006.18 1006.29 1006.38 1006.48 1006.63 1006.83 1007.09 1007.43 1007.82 1008.26 1008.74 1009.23 1009.71 1010.17 1010.58 1010.95 1011.28 1011.56 1011.80 1012.03
1001.01 1001.13 1001.29 1001.45 1001.59 1001.70 1001.76 1001.79 1001.80 1001.81 1001.86 1001.96 1002.14 1002.40 1002.74 1003.16 1003.63 1004.12 1004.61 1005.07 1005.47 1005.81 1006.07 1006.27 1006.42 1006.55 1006.66 1006.80 1006.99 1007.23 1007.53 1007.91 1008.34 1008.81 1009.30 1009.79 1010.26 1010.69 1011.08 1011.42 1011.72 1011.98 1012.21 1012.43
1000.64 1000.83 1001.05 1001.26 1001.44 1001.58 1001.68 1001.73 1001.77 1001.82 1001.89 1002.02 1002.21 1002.49 1002.85 1003.28 1003.75 1004.24 1004.72 1005.18 1005.57 1005.91 1006.18 1006.40 1006.57 1006.73 1006.89 1007.08 1007.32 1007.63 1007.99 1008.42 1008.89 1009.40 1009.91 1010.41 1010.88 1011.30 1011.67 1011.98 1012.25 1012.49 1012.70 1012.92
1000.49 1000.73 1001.00 1001.25 1001.47 1001.64 1001.76 1001.84 1001.90 1001.96 1002.06 1002.20 1002.40 1002.68 1003.03 1003.44 1003.89 1004.35 1004.81 1005.24 1005.62 1005.95 1006.22 1006.45 1006.66 1006.86 1007.08 1007.33 1007.64 1008.01 1008.45 1008.93 1009.45 1010.00 1010.53 1011.04 1011.51 1011.92 1012.28 1012.57 1012.83 1013.05 1013.25 1013.44
1000.63 1000.93 1001.23 1001.50 1001.74 1001.92 1002.06 1002.15 1002.22 1002.29 1002.39 1002.52 1002.72 1002.97 1003.29 1003.67 1004.07 1004.49 1004.91 1005.30 1005.65 1005.97 1006.24 1006.49 1006.73 1006.98 1007.25 1007.58 1007.96 1008.39 1008.89 1009.42 1009.99 1010.56 1011.11 1011.63 1012.10 1012.50 1012.85 1013.14 1013.39 1013.60 1013.79 1013.98
1001.10 1001.43 1001.75 1002.03 1002.27 1002.44 1002.57 1002.66 1002.72 1002.78 1002.86 1002.97 1003.14 1003.36 1003.63 1003.95 1004.30 1004.66 1005.03 1005.38 1005.71 1006.01 1006.29 1006.56 1006.84 1007.13 1007.47 1007.85 1008.29 1008.78 1009.32 1009.89 1010.48 1011.06 1011.62 1012.14 1012.60 1013.01 1013.35 1013.64 1013.89 1014.11 1014.31 1014.50
1001.88 1002.21 1002.52 1002.78 1002.99 1003.14 1003.24 1003.29 1003.33 1003.36 1003.41 1003.49 1003.61 1003.78 1004.00 1004.27 1004.56 1004.87 1005.19 1005.51 1005.82 1006.11 1006.41 1006.71 1007.02 1007.37 1007.75 1008.18 1008.66 1009.19 1009.76 1010.34 1010.93 1011.51 1012.06 1012.56 1013.01 1013.41 1013.76 1014.05 1014.31 1014.54 1014.76 1014.96
1002.85 1003.16 1003.43 1003.65 1003.81 1003.91 1003.96 1003.98 1003.98 1003.97 1003.98 1004.02 1004.10 1004.22 1004.39 1004.61 1004.85 1005.12 1005.41 1005.71 1006.00 1006.31 1006.63 1006.96 1007.31 1007.70 1008.13 1008.60 1009.11 1009.65 1010.22 1010.79 1011.36 1011.92 1012.44 1012.92 1013.35 1013.73 1014.07 1014.38 1014.65 1014.91 1015.15 1015.37
1003.89 1004.16 1004.37 1004.53 1004.63 1004.67 1004.67 1004.64 1004.59 1004.55 1004.52 1004.52 1004.56 1004.65 1004.79 1004.97 1005.18 1005.43 1005.70 1005.99 1006.29 1006.62 1006.96 1007.32 1007.72 1008.14 1008.60 1009.09 1009.61 1010.15 1010.71 1011.26 1011.80 1012.31 1012.79 1013.23 1013.64 1014.00 1014.34 1014.64 1014.93 1015.21 1015.47 1015.72
1004.88 1005.09 1005.24 1005.33 1005.36 1005.35 1005.30 1005.22 1005.14 1005.07 1005.01 1005.00 1005.02 1005.09 1005.20 1005.36 1005.56 1005.80 1006.07 1006.36 1006.68 1007.02 1007.39 1007.79 1008.21 1008.67 1009.15 1009.65 1010.17 1010.70 1011.22 1011.74 1012.23 1012.70 1013.14 1013.54 1013.91 1014.25 1014.57 1014.88 1015.17 1015.46 1015.73 1015.99
Thickness
5751 5757 5758 5755 5755 5753 5748 5743 5736 5744 5746 5758 5766 5769 5771 5772 5772 5771 5769 5768 5767 5765 5763 5762 5760 5758 5756 5753 5750 5748 5743 5740 5736 5734 5732 5729 5726 5724 5722 5719 5717 5714 5712 5710
5744 5751 5752 5749 5753 5753 5751 5749 5745 5747 5748 5763 5766 5767 5766 5766 5766 5764 5764 5764 5763 5761 5759 5757 5755 5752 5750 5748 5745 5742 5739 5736 5733 5730 5727 5724 5722 5720 5718 5715 5713 5710 5708 5706
5722 5735 5740 5731 5744 5747 5748 5749 5747 5742 5750 5759 5758 5759 5760 5761 5760 5760 5760 5760 5758 5757 5755 5753 5751 5749 5746 5744 5741 5737 5734 5731 5728 5726 5722 5720 5718 5715 5713 5711 5708 5706 5704 5702
5708 5719 5709 5732 5751 5751 5746 5747 5748 5749 5751 5753 5755 5756 5757 5758 5756 5756 5757 5756 5754 5753 5751 5749 5748 5745 5741 5738 5735 5732 5729 5726 5723 5721 5718 5715 5712 5710 5708 5706 5703 5701 5700 5698
5694 5698 5709 5729 5743 5743 5737 5736 5745 5744 5746 5747 5749 5749 5748 5754 5754 5754 5754 5752 5750 5748 5747 5745 5742 5739 5735 5732 5729 5725 5723 5721 5719 5716 5713 5710 5707 5705 5703 5700 5698 5696 5695 5693
5688 5692 5692 5719 5740 5746 5737 5723 5742 5741 5738 5737 5739 5728 5736 5748 5748 5748 5748 5747 5745 5742 5740 5737 5734 5731 5727 5724 5720 5717 5717 5716 5714 5711 5708 5705 5702 5700 5698 5695 5693 5691 5689 5688
5683 5685 5695 5721 5733 5735 5712 5718 5737 5736 5734 5731 5729 5732 5738 5742 5741 5741 5740 5739 5737 5734 5731 5729 5727 5723 5718 5715 5713 5712 5711 5709 5707 5705 5702 5700 5697 5694 5692 5689 5687 5685 5683 5682
5673 5676 5688 5720 5721 5715 5716 5727 5729 5730 5730 5728 5728 5730 5732 5732 5732 5732 5731 5730 5729 5726 5723 5722 5719 5715 5711 5708 5709 5707 5705 5703 5700 5698 5696 5695 5690 5688 5686 5683 5680 5678 5676 5675
5679 5686 5702 5709 5712 5718 5718 5718 5722 5723 5725 5724 5723 5722 5724 5723 5723 5723 5723 5722 5721 5718 5715 5714 5712 5709 5705 5704 5703 5701 5698 5695 5694 5692 5690 5688 5684 5681 5679 5676 5674 5671 5669 5668
5675 5687 5696 5702 5706 5710 5713 5714 5718 5719 5719 5718 5716 5717 5716 5714 5714 5713 5713 5712 5711 5708 5706 5705 5704 5703 5701 5699 5696 5694 5692 5690 5688 5684 5681 5680 5677 5675 5674 5671 5668 5666 5663 5662
5668 5678 5687 5696 5698 5702 5706 5709 5710 5712 5712 5711 5710 5709 5708 5706 5706 5705 5705 5704 5702 5700 5699 5698 5697 5695 5694 5692 5689 5686 5684 5683 5681 5678 5676 5673 5671 5669 5668 5666 5664 5662 5660 5657
5662 5671 5672 5681 5690 5695 5696 5699 5701 5702 5703 5704 5703 5701 5701 5699 5698 5697 5696 5695 5694 5693 5692 5691 5689 5688 5687 5685 5683 5680 5678 5676 5674 5672 5669 5667 5664 5663 5662 5661 5659 5657 5655 5653
5666 5670 5671 5677 5682 5686 5688 5691 5694 5694 5694 5694 5695 5695 5693 5691 5690 5689 5688 5687 5687 5687 5685 5683 5682 5681 5680 5679 5677 5674 5672 5670 5667 5665 5662 5660 5659 5657 5655 5654 5652 5651 5649 5647
5662 5663 5664 5669 5672 5677 5680 5683 5685 5685 5686 5686 5686 5685 5685 5683 5682 5681 5681 5681 5681 5680 5678 5677 5675 5675 5674 5672 5670 5668 5666 5665 5662 5659 5657 5656 5654 5653 5650 5648 5646 5645 5644 5642
5656 5658 5658 5662 5664 5668 5671 5672 5672 5672 5674 5675 5676 5676 5675 5674 5674 5674 5675 5675 5674 5673 5671 5670 5669 5669 5668 5666 5663 5662 5660 5658 5656 5654 5653 5651 5649 5647 5645 5643 5641 5639 5638 5637
5648 5650 5652 5653 5655 5657 5660 5661 5661 5662 5663 5664 5665 5667 5668 5668 5668 5667 5667 5667 5665 5665 5664 5663 5663 5663 5662 5661 5658 5656 5655 5654 5652 5650 5647 5645 5644 5642 5639 5637 5635 5633 5632 5631
5638 5640 5643 5644 5647 5649 5651 5652 5653 5655 5656 5656 5657 5659 5660 5660 5660 5660 5660 5660 5660 5659 5659 5659 5659 5659 5658 5655 5653 5651 5649 5648 5647 5644 5642 5640 5639 5637 5634 5632 5630 5629 5628 5627
5636 5638 5639 5640 5641 5642 5644 5646 5648 5648 5649 5651 5652 5653 5653 5652 5652 5653 5654 5653 5652 5653 5654 5654 5654 5653 5652 5650 5648 5646 5643 5642 5640 5638 5636 5635 5633 5632 5629 5627 5626 5624 5623 5621
5632 5633 5635 5636 5637 5637 5638 5640 5642 5644 5646 5646 5646 5647 5647 5647 5647 5647 5647 5645 5645 5646 5649 5649 5648 5648 5647 5645 5643 5640 5638 5636 5634 5632 5630 5629 5627 5626 5624 5622 5621 5619 5618 5615
5626 5628 5630 5631 5632 5632 5633 5635 5636 5638 5640 5641 5640 5640 5640 5641 5641 5640 5639 5639 5641 5642 5644 5643 5642 5641 5640 5639 5638 5635 5633 5631 5629 5627 5625 5623 5622 5620 5618 5617 5616 5614 5612 5610
5620 5622 5623 5624 5625 5627 5628 5629 5630 5632 5634 5635 5634 5634 5634 5635 5634 5633 5632 5634 5637 5638 5637 5637 5636 5635 5635 5633 5631 5629 5627 5625 5623 5621 5619 5618 5616 5614 5613 5611 5610 5608 5606 5604
5614 5615 5616 5617 5618 5619 5621 5623 5624 5626 5627 5627 5628 5629 5628 5628 5628 5628 5629 5630 5633 5632 5631 5630 5630 5630 5629 5627 5625 5623 5622 5620 5617 5615 5613 5611 5608 5607 5606 5604 5603 5601 5599 5597
5607 5608 5609 5610 5611 5612 5614 5616 5618 5619 5620 5621 5621 5622 5622 5622 5623 5622 5624 5627 5626 5625 5625 5625 5624 5623 5622 5620 5619 5617 5615 5613 5611 5609 5607 5604 5602 5601 5599 5597 5595 5593 5591 5589
5600 5601 5602 5603 5604 5605 5607 5610 5612 5613 5614 5616 5617 5618 5617 5617 5617 5619 5620 5620 5620 5619 5619 5619 5618 5617 5616 5615 5613 5611 5609 5607 5604 5603 5600 5598 5595 5593 5591 5590 5587 5585 5583 5581
5593 5594 5595 5597 5597 5598 5600 5603 5605 5607 5609 5611 5612 5613 5613 5613 5613 5613 5613 5614 5613 5613 5613 5612 5611 5610 5610 5609 5607 5605 5602 5600 5598 5595 5593 5590 5587 5585 5584 5582 5580 5577 5575 5573
5587 5589 5590 5591 5593 5594 5596 5598 5600 5602 5603 5604 5606 5607 5607 5608 5608 5607 5607 5607 5607 5606 5605 5605 5604 5603 5602 5600 5598 5597 5595 5593 5590 5587 5585 5582 5580 5578 5576 5574 5572 5570 5567 5565
5582 5584 5585 5587 5589 5591 5593 5594 5596 5597 5599 5600 5601 5602 5602 5602 5602 5601 5601 5600 5600 5599 5598 5598 5597 5596 5594 5592 5591 5589 5587 5585 5583 5581 5578 5576 5574 5571 5569 5567 5564 5562 5560 5558